Location: La Tine
(46.4708°N, 7.0525°E)
Time: 02:02:21
(UTC+00:00)

Resurs 1-3 - Pass Details

Date: 18 September 2020
Orbit: 631 x 632 km, 97.9° (Epoch: 29 October)

Event Time Altitude Azimuth Distance (km) Brightness Sun altitude
Exits shadow 20:01:12 55° 212° (SSW) 764 3.9 -24.5°
Maximum altitude 20:01:54 64° 258° (WSW) 701 3.9 -24.6°
Drops below altitude 10° 20:06:17 10° 341° (NNW) 2,025 6.8 -25.2°
Sets 20:08:31 0° 344° (NNW) 2,937 7.7 -25.5°
